KEWRKLDJ

Guest
Details From KEWR - Newark Liberty Intl
To KLDJ - Linden
Flight Number -
Tags Generated
Created
Modified
Stats Distance 6 nm / 11 km
Max Altitude 0 ft / 0 m
Waypoints 2
Social Downloads 1
Likes 0
Share VATSIM

Download

Looking for another format? Having issues loading an existing format? Contact us
Advertisement - Login to hide

Notes

Generated

Route

KEWR KLDJ

ID Type Via Altitude Latitude Longitude Leg Dist Tot Dist Heading (true) Name
O KEWR APT - 0 ft / 0 m 40.70281˚ -74.18071˚ - 0 nm - -
O KLDJ APT - 0 ft / 0 m 40.61604˚ -74.25182˚ 6 nm 6 nm 212° / 212° -

Altitude Profile

Advertisement - Login to hide

KEWR

Details ICAO KEWR (EWR)
Name Newark Liberty Intl
Region United States
Timezone America/New_York (UTC-4.0)
Stats Elevation 18 ft / 5 m (AMSL)
Location 40.693633° -74.168565°
Runways 3
Magnetic Variation 12.800° W

METAR

KEWR 271551Z 03012KT 8SM -RA OVC008 18/17 A3001 RMK AO2 SLP163 CIG 007V009 P0002 T01780167

Decode

TAF

KEWR 271509Z 2715/2818 05008KT 6SM -RA BR BKN008 OVC015 TEMPO 2715/2717 5SM -RA BR FM271900 04008KT 6SM BR OVC008 FM280800 03006KT P6SM OVC012 FM281300 03005KT P6SM OVC015 FM281600 VRB03KT P6SM BKN025

Decode

Departure Runways

ID Width Length Bearing (true) Bearing (mag) Surface Threshold Offset Overrun Length
04L 150 ft / 46 m 11,009 ft / 3,356 m 25.73° 38.53° Asphalt 2,543 ft / 775 m 600 ft / 183 m
04R 150 ft / 46 m 10,008 ft / 3,051 m 25.73° 38.53° Asphalt 1,191 ft / 363 m 299 ft / 91 m
11 150 ft / 46 m 6,785 ft / 2,068 m 95.01° 107.81° Asphalt 0 ft / 0 m 299 ft / 91 m
22L 150 ft / 46 m 10,008 ft / 3,051 m 205.74° 218.54° Asphalt 1,795 ft / 547 m 801 ft / 244 m
22R 150 ft / 46 m 11,009 ft / 3,356 m 205.74° 218.54° Asphalt 1,424 ft / 434 m 699 ft / 213 m
29 150 ft / 46 m 6,785 ft / 2,068 m 275.02° 287.82° Asphalt 299 ft / 91 m 98 ft / 30 m

KLDJ

Details ICAO KLDJ (LDJ)
Name LINDEN
Region United States
Timezone America/New_York (UTC-4.0)
Stats Elevation 23 ft / 7 m (AMSL)
Location 40.617449° -74.244595°
Runways 1
Magnetic Variation 12.743° W

METAR

KLDJ 271615Z AUTO 00000KT 7SM BKN010 OVC013 18/16 A3002 RMK AO2 T01790162

Decode

TAF

Not found

Destination Runways

ID Width Length Bearing (true) Bearing (mag) Surface Threshold Offset Overrun Length
09 98 ft / 30 m 4,131 ft / 1,259 m 75.60° 88.34° Asphalt 459 ft / 140 m 200 ft / 61 m
27 98 ft / 30 m 4,131 ft / 1,259 m 255.61° 268.35° Asphalt 545 ft / 166 m 200 ft / 61 m

Popular Alternatives